Regional Weather Roundup
Issued by NWS Newport/Morehead, NC

Current Version | Previous Version | Graphics & Text | Print | Product List | Glossary Off
Versions: 1 2 3 4 5 6 7 8 9 10 11 12 13 14 15 16 17 18 19 20 21 22 23 24 25 26 27 28 29 30 31 32 33 34 35 36 37 38 39 40 41 42 43 44 45 46 47 48 49 50

000
ASUS42 KMHX 282110
RWRMHX
WEATHER ROUNDUP FOR EASTERN NORTH CAROLINA
NATIONAL WEATHER SERVICE NEWPORT/MOREHEAD CITY NC
500 PM EDT THU AUG 28 2014

NOTE: "FAIR" INDICATES FEW OR NO CLOUDS BELOW 12,000 FEET
WITH NO SIGNIFICANT WEATHER AND/OR OBSTRUCTIONS TO VISIBILITY

NCZ015>017-031-032-045>047-102-103-282200-
NORTH COAST

CITY           SKY/WX    TMP DP  RH WIND       PRES   REMARKS
EDENTON        MOSUNNY   87  73  62 W6        29.94S
ELIZABETH CITY PTSUNNY   84  74  71 SE9       29.94R
KITTY HAWK     PTCLDY    79  70  74 NE6       29.95R
MANTEO         MOSUNNY   79  72  77 NE10      29.95S

$$

NCZ045>047-081-094-103-104-282200-
CENTRAL COAST

CITY           SKY/WX    TMP DP  RH WIND       PRES   REMARKS
FRISCO         MOSUNNY   83  70  64 SW10      29.95S
SWANQUARTER      N/A     88 N/A N/A S7        29.91S

$$

NCZ095-097-098-100-101-282200-
SOUTHERN COAST

CITY           SKY/WX    TMP DP  RH WIND       PRES   REMARKS
BEAUFORT       SUNNY     85  70  60 SW13      29.96S
CEDAR ISLAND     N/A     91 N/A N/A S6        30.00S
JACKSONVILLE   SUNNY     91  66  43 SW5       29.94S
NEWPORT        NOT AVBL
PINEY ISLAND   CLEAR     90  72  55 SW10      29.95R
WILMINGTON     SUNNY     91  65  41 SW8       29.95S


$$

NCZ011>013-027>030-043-044-078>080-089-090>093-098-282200-
COASTAL PLAIN

CITY           SKY/WX    TMP DP  RH WIND       PRES   REMARKS
AHOSKIE        MOSUNNY   86  72  62 CALM      29.95R
CLINTON        SUNNY     92  73  52 CALM      29.95S HX 100
ELIZABETHTOWN  SUNNY     92  62  37 SW5       29.95F
GOLDSBORO      SUNNY     91  74  57 NW8       29.93S HX 101
GREENVILLE     SUNNY     90  72  55 W5        29.96F
HAVELOCK       MOSUNNY   88  69  53 S13       29.96R
KENANSVILLE    SUNNY     91  66  43 CALM      29.95S
KINSTON        SUNNY     91  70  49 W3        29.95S
NEW BERN       SUNNY     92  68  45 CALM      29.95S
RICHLANDS      SUNNY     91  66  43 CALM      29.95R
ROANOKE RAPIDS NOT AVBL
ROCKY MOUNT    MOSUNNY   90  72  55 CALM      29.95S
WASHINGTON     MOSUNNY   89  72  56 W3        29.95R
WHITEVILLE     SUNNY     90  64  41 CALM      29.96S

$$

AMZ130-135-150-152-154-156-158-170-250-252-270-ANZ085-086-088-633-658-670-282200-
MARINE OBSERVATIONS

STATION/POSITION TIME  TEMP    WIND        PRES    WAVE   SWELL
                       AIR SEA DIR/SP/G            HT/PER HT/PER
                 (UTC) (F)     (DEG/KT/KT) (MB)    (FT/S) (FT/S)
CHESAPEAKE LIGHT 2000   78      30/  4/  4 1014.5
BUOY 44014       2100   77 76  350/  4/  6 1013.7    4/11   3/11
DUCK             2100   77 78   60/  8/  8 1013.6
2E DUCK          2100                        N/A     3/11   2/11
OREGON INLET     2100   78 78   40/  8/ 11 1014.3
BUOY 44095       2100      77                N/A     4/11   2/11
20E OREGON INLET NOT AVBL
HATTERAS CG      2100   83 79  220/ 10/ 12 1014.8
DIAMOND BUOY     2100   82     230/ 12/ 14 1014.3    5/10   5/10
CAPE LOOKOUT     2000   82     230/ 12/ 14 1014.6
BEAUFORT LAB     2100   83 81  210/  9/ 12 1014.0
30 SE NEW RIVER  2100   82 81  240/ 14/ 16 1015.1    4/ 9   3/ 9
5 SE WRIGHTSVILL 2100   80 81  220/ 14/ 16   N/A
BUOY 41002       2046   81 83  230/  6/  8 1016.9    5/ 8   5/ 8
BUOY 41004       2100   81 84  230/  6/ 10 1015.8    4/11   3/11

$$


USA.gov is the U.S. government's official web portal to all federal, state and local government web resources and services.